| time (UTC) | temp F | wind direction | speed MPH | gust MPH | rain 1hr in | rain 24hr in | rain mn in | humidity % | barometer mb |
| 20260504201539 | 56 | 312 | 8.0 | 15.0 | 0.00 | 0.03 | 0.01 | 67 | 1003.5 |
| 20260504200045 | 55 | 281 | 7.0 | 16.0 | 0.00 | 0.03 | 0.01 | 68 | 1003.5 |
| 20260504194537 | 55 | 282 | 6.0 | 17.0 | 0.00 | 0.06 | 0.01 | 69 | 1003.5 |
| 20260504193036 | 54 | 269 | 8.0 | 16.0 | 0.00 | 0.06 | 0.01 | 70 | 1003.5 |
| 20260504191542 | 54 | 256 | 8.0 | 17.0 | 0.00 | 0.06 | 0.01 | 70 | 1003.5 |
| 20260504190036 | 53 | 203 | 9.0 | 18.0 | 0.00 | 0.06 | 0.01 | 71 | 1003.6 |
| 20260504184553 | 53 | 261 | 8.0 | 19.0 | 0.00 | 0.12 | 0.01 | 72 | 1003.8 |
| 20260504183039 | 52 | 279 | 9.0 | 15.0 | 0.00 | 0.12 | 0.01 | 75 | 1003.9 |
| 20260504181538 | 50 | 311 | 4.0 | 10.0 | 0.00 | 0.12 | 0.01 | 83 | 1004.1 |
| 20260504180035 | 50 | 264 | 4.0 | 9.0 | 0.00 | 0.12 | 0.01 | 83 | 1004.2 |
| 20260504174539 | 50 | 286 | 4.0 | 10.0 | 0.01 | 0.18 | 0.01 | 83 | 1004.1 |
| 20260504173037 | 49 | 272 | 4.0 | 10.0 | 0.01 | 0.18 | 0.01 | 83 | 1004.0 |
| 20260504171536 | 49 | 292 | 5.0 | 10.0 | 0.01 | 0.18 | 0.01 | 84 | 1004.0 |
| 20260504081538 | 33 | 296 | 3.0 | 8.0 | 0.00 | 0.70 | 0.00 | 81 | 1004.7 |
| 20260504044546 | 36 | 309 | 4.0 | 8.0 | 0.00 | 0.71 | 0.00 | 81 | 1003.5 |
| 20260504043039 | 36 | 305 | 2.0 | 8.0 | 0.00 | 0.71 | 0.00 | 81 | 1003.4 |
| 20260504041539 | 37 | 300 | 3.0 | 8.0 | 0.00 | 0.71 | 0.00 | 82 | 1003.3 |
| 20260504040045 | 37 | 283 | 4.0 | 7.0 | 0.00 | 0.71 | 0.00 | 82 | 1003.2 |
| 20260504034538 | 37 | 293 | 4.0 | 9.0 | 0.00 | 0.71 | 0.71 | 82 | 1003.0 |
| 20260504033051 | 37 | 299 | 3.0 | 8.0 | 0.00 | 0.71 | 0.71 | 83 | 1003.0 |
| 20260504031543 | 37 | 298 | 2.0 | 9.0 | 0.00 | 0.71 | 0.71 | 83 | 1002.9 |
| 20260504030038 | 37 | 305 | 3.0 | 8.0 | 0.00 | 0.71 | 0.71 | 83 | 1002.8 |
| 20260504024553 | 37 | 315 | 4.0 | 8.0 | 0.00 | 0.71 | 0.71 | 83 | 1002.6 |
| 20260504023046 | 38 | 306 | 4.0 | 9.0 | 0.00 | 0.71 | 0.71 | 84 | 1002.5 |
| 20260504021548 | 39 | 285 | 4.0 | 10.0 | 0.00 | 0.71 | 0.71 | 85 | 1002.4 |
| 20260504020042 | 39 | 283 | 4.0 | 10.0 | 0.00 | 0.71 | 0.71 | 85 | 1002.3 |
| 20260504014540 | 40 | 289 | 4.0 | 10.0 | 0.00 | 0.71 | 0.71 | 88 | 1002.4 |
| 20260504013046 | 40 | 348 | 4.0 | 13.0 | 0.00 | 0.71 | 0.71 | 93 | 1002.2 |
| 20260504011543 | 40 | 312 | 3.0 | 9.0 | 0.00 | 0.71 | 0.71 | 95 | 1002.1 |
| 20260504010043 | 40 | 306 | 1.0 | 6.0 | 0.00 | 0.71 | 0.71 | 94 | 1001.9 |
| 20260504004546 | 41 | 0 | 2.0 | 6.0 | 0.00 | 0.71 | 0.71 | 93 | 1001.8 |
| 20260504003038 | 41 | 315 | 2.0 | 6.0 | 0.00 | 0.71 | 0.71 | 93 | 1001.5 |
| 20260504001540 | 41 | 311 | 3.0 | 8.0 | 0.00 | 0.71 | 0.71 | 94 | 1001.2 |
| 20260504000044 | 41 | 352 | 2.0 | 8.0 | 0.00 | 0.71 | 0.71 | 94 | 1001.3 |
| 20260503234539 | 41 | 329 | 2.0 | 7.0 | 0.00 | 0.71 | 0.71 | 94 | 1001.0 |
| 20260503233038 | 41 | 254 | 3.0 | 9.0 | 0.00 | 0.71 | 0.71 | 93 | 1000.9 |
| 20260503231540 | 42 | 322 | 3.0 | 9.0 | 0.00 | 0.71 | 0.71 | 93 | 1000.8 |
| 20260503230050 | 42 | 298 | 2.0 | 9.0 | 0.00 | 0.71 | 0.71 | 93 | 1000.8 |
| 20260503224543 | 42 | 326 | 3.0 | 9.0 | 0.00 | 0.71 | 0.71 | 93 | 1000.5 |
| 20260503223040 | 42 | 22 | 2.0 | 13.0 | 0.00 | 0.71 | 0.71 | 94 | 1000.5 |
| 20260503221538 | 42 | 346 | 4.0 | 15.0 | 0.00 | 0.71 | 0.71 | 94 | 1000.4 |
| 20260503220045 | 42 | 36 | 3.0 | 10.0 | 0.00 | 0.71 | 0.71 | 94 | 1000.5 |
| 20260503214541 | 42 | 5 | 2.0 | 10.0 | 0.00 | 0.71 | 0.71 | 95 | 1000.3 |
| 20260503213043 | 41 | 335 | 2.0 | 13.0 | 0.01 | 0.71 | 0.71 | 95 | 1000.3 |
| 20260503211541 | 41 | 20 | 4.0 | 14.0 | 0.01 | 0.71 | 0.71 | 95 | 1000.6 |
| 20260503210037 | 41 | 319 | 4.0 | 13.0 | 0.01 | 0.71 | 0.71 | 95 | 1000.5 |
| 20260503204537 | 41 | 348 | 6.0 | 15.0 | 0.02 | 0.71 | 0.71 | 95 | 1000.7 |
| 20260503203041 | 41 | 297 | 3.0 | 11.0 | 0.02 | 0.70 | 0.70 | 95 | 1000.7 |